Weather in Roshchinsky

Russia / Krasnoyarsk Krai     53°52′46″N   92°46′53″E
temp.,
°C
wind,
m/s
gust,
m/s
humid.,
%
clouds,
%
prec.,
mm/h
press.,
hPa
HPBL,
m
25 june, sat
sat2501:00+14ssw119398 1.1 100714
04:00+13ssw119653 1.2 100815
07:00+15s229387 1.7 1008199
10:00+19wsw247713 1.2 1008831
13:00+22w356975 1.9 10071446
16:00+22wnw24665 0.1 1007832
19:00+22s357561 0.3 1007172
22:00+18ese2285100 0.2 100717
26 june, sun
sun2601:00+16e2292100 0.2 100712
04:00+14ese2294100 0.0 100716
07:00+17ese2385100 0.0 1007167
10:00+22sse2364100 0.0 1006511
13:00+27s13505 0.0 1004972
16:00+29sse13450 0.0 1002809
19:00+27n11620 0.0 100115
22:00+21e11620 0.0 100011
27 june, mon
mon2701:00+18ese216780 0.0 100111
04:00+17se1176100 0.1 100112
07:00+19ese237970 0.1 1003125
10:00+25sse236165 0.0 1002461
13:00+28w11555 0.0 1001526
16:00+30wnw235259 0.0 999650
19:00+21w81477100 0.6 998509
22:00+18wsw1186100 0.5 100011
28 june, tue
tue2801:00+17ssw1190100 0.5 100111
04:00+16se2295100 0.8 100228
07:00+18s249390 1.1 1003210
10:00+20wsw3583100 1.3 1005671
13:00+21nw2377100 4.3 1005792
16:00+22nw2266100 2.4 10051009
19:00+21n23680 2.6 1005289
22:00+15e117798 0.0 100611
29 june, wed
wed2901:00+15n2269100 0.0 100632
04:00+12nne227999 0.0 100616
07:00+15n127399 0.0 100795
10:00+19ssw11640 0.0 1006545
13:00+23sw12570 0.0 1004955
16:00+25ene12510 0.0 10021177
19:00+23n237084 0.0 1001157
22:00+18ene227477 0.0 100111